FENGYUN 1C DEB

Satellite information

Favourite Embed

Satellite Type and Status

DEBRISIN ORBIT

Key statistics

Satellite FENGYUN 1C DEB at a glance.

Uptime

9555

Days in orbit

Revolutions

≈ 14.3

Per day

Orbit

SSO

Sun Synchronous Orbit

Inclination

99.3

Latest

Satellite identification and parameters

Extended collection of information and parameters for FENGYUN 1C DEB.

Object identification

Identified? True

Debris? True

Object name: FENGYUN 1C DEB

International designator: 1999-025DUD

Object number (NORAD): 36204

Object ID (CCSDS): 36204

Country: PEOPLES REPUBLIC OF CHINA (PRC)

Current information (Y/N): Y

RCS size: SMALL

Orbital parameters

Period: 100.468 minutes

Inclination: 99.294 deg

SMA: 7158.877 km

Apoapsis: 793.572 km

Periapsis: 767.913 km

RAAN: 269.0756 deg

Eccentricy: 0.0017921

Argument of periapsis: 271.0895 deg

Mean anomaly: 88.8234 deg

Mean motion: 14.33294378 rev/day

Mean motion (dot): 0.00001858 rev/day2

B* drag term: 0.00069203 1/REarth

Two-line elements (TLE)

Creation date: July 3, 2025, 5:26 p.m.

Reference frame: TEME

Reference center: EARTH

Epoch: July 2, 2025, 11:08 p.m. UTC

TLE line 0: 0 FENGYUN 1C DEB

TLE line 1: 1 36204U 99025DUD 25183.96393640 .00001858 00000-0 69203-3 0 9994

TLE line 2: 2 36204 99.2940 269.0756 0017921 271.0895 88.8234 14.33294378920959

Live tracking on map

Real-time ground track for satellite FENGYUN 1C DEB.

In-orbit conjunctions

A list of the most updated potential collisions computed for object FENGYUN 1C DEB.

Target Orbit TCA Probability of collision Miss distance Type
THORAD AGENA D DEB LEO 2025-05-09 12:47:41 0.0001082202 167.0 (m) DEBRIS
CZ-6A DEB LEO 2024-12-13 05:15:38 0.000201247 546.0 (m) DEBRIS

Associated space launch

Chinese polar orbiting meteorological satellite

FENGYUN 1C DEB was lifted into orbit during the mission ‘Long March 4B | Feng Yun 1C’, on board a Long March 4B space rocket.

The launch took place on May 10, 1999, 1:33 a.m. from Launch Complex 7.

For more information about the launch, click the button.

Launch to space Long March 4B | Feng Yun 1C
Long March 4B | Feng Yun 1C

Agency: N/A

Status: Launch Successful

Launch date: May 10, 1999, 1:33 a.m. UTC

Rocket: Long March 4B

Launch pad: Launch Complex 7

Location: Taiyuan Satellite Launch Center, People's Republic of China

...

Latest news about this satellite

There are no fresh news available about this satellite. Check back as we update our databases every day.


Newsletter sign-up

Weekly statistics, charts and insights to help you stay on top of the space industry.